Temperature
20 20 20 19 20 19 17 17 16 16 15 14 14 14 14 14 14 14 14 13 13 13 13 13 13 13 12 12 12 12 12 12 11 11 11 11 10 10 10 10 10 10 10 10
19 20 19 19 19 18 18 17 16 15 14 14 14 14 14 14 14 14 14 14 13 13 13 13 13 12 12 12 12 12 11 11 11 11 11 10 10 10 10 9 9 9 9 9
18 20 19 16 17 17 17 15 14 13 13 12 12 13 13 14 14 14 13 13 13 13 12 12 12 11 11 11 11 11 11 11 11 11 10 10 10 10 9 9 9 9 9 9
17 18 18 17 18 18 16 14 15 14 13 13 13 14 14 14 14 13 13 12 12 11 11 11 10 10 10 10 10 10 10 10 10 10 10 9 9 9 9 9 8 8 8 8
15 17 17 18 17 17 16 14 14 13 12 14 14 13 13 13 13 12 12 11 11 10 9 9 9 8 8 8 7 7 8 8 8 8 8 8 8 8 8 8 8 8 8 8
16 17 17 16 17 18 16 14 14 14 13 13 12 10 10 12 12 11 10 10 9 8 8 7 7 6 5 5 5 5 5 5 5 6 6 7 7 7 7 7 7 7 7 7
16 16 16 16 17 15 13 12 14 14 14 13 11 11 12 12 11 10 9 8 8 7 6 5 5 4 4 4 4 4 3 4 4 4 4 5 5 5 6 6 6 6 6 7
14 15 15 16 15 14 13 15 14 14 13 13 12 12 11 10 9 9 8 7 6 5 5 4 4 4 3 3 3 3 3 3 3 3 3 3 4 4 4 5 5 5 6 6
14 14 15 16 16 15 15 15 14 13 13 12 12 11 10 9 8 8 7 6 5 5 4 4 4 4 3 4 3 3 3 3 3 3 3 3 3 3 3 4 4 5 5 6
15 15 16 16 16 15 15 14 14 13 12 12 11 10 9 8 8 7 6 5 5 4 4 4 4 4 4 4 4 3 3 3 3 3 3 3 3 3 3 4 4 5 5 6
15 16 16 16 15 15 14 14 13 13 12 11 10 9 8 8 7 6 5 5 4 4 4 4 4 4 4 4 4 4 4 3 3 3 3 3 4 4 4 4 4 5 5 6
13 15 14 15 15 14 14 13 13 12 11 10 9 9 8 7 6 6 5 5 4 4 4 4 4 5 5 4 4 4 4 4 3 3 3 3 4 4 4 4 4 5 5 6
17 16 16 15 15 14 14 13 12 11 10 10 9 8 7 7 6 6 5 5 5 4 4 4 5 5 5 5 5 4 4 4 4 3 4 4 4 4 4 4 5 5 5 6
17 16 16 15 14 14 13 12 12 11 10 9 8 8 7 6 6 6 5 5 5 5 5 5 5 5 5 5 5 5 4 4 4 3 4 4 4 4 4 4 5 5 5 5
17 16 16 15 14 14 13 12 11 10 9 9 8 8 7 6 6 6 6 5 5 5 5 5 5 6 6 6 6 5 5 4 4 4 4 4 4 4 4 4 5 5 5 5
16 16 15 15 14 13 12 11 10 10 9 8 8 7 6 6 7 7 7 6 6 5 5 5 6 6 6 6 6 6 6 5 5 4 4 4 4 5 5 5 5 5 6 6
16 16 15 14 13 13 12 11 10 9 9 8 8 7 6 7 7 7 7 7 6 6 6 6 6 7 7 7 7 7 6 6 6 5 5 5 5 5 5 5 5 5 6 6
16 16 15 14 13 13 12 11 10 9 9 8 8 7 6 6 6 7 7 7 7 7 7 7 7 7 7 7 7 7 7 7 7 6 6 6 6 6 6 6 6 6 6 6
16 16 15 14 13 12 11 10 10 9 9 8 7 7 6 6 6 7 7 7 6 6 7 7 7 8 8 7 7 7 7 7 7 7 7 7 7 7 7 7 7 6 6 6
16 15 14 14 13 12 11 10 9 9 9 8 7 7 6 6 6 7 7 7 6 6 7 7 8 8 8 8 8 7 7 7 7 7 7 7 7 7 7 7 7 7 6 6
16 15 14 14 13 12 11 10 9 9 8 8 7 6 6 6 6 6 7 7 8 8 8 8 8 8 8 9 9 8 8 8 7 7 7 7 7 7 7 7 7 7 6 6
15 15 14 13 12 11 10 10 9 9 8 8 7 6 6 6 6 7 6 6 7 8 8 8 8 8 9 9 9 9 8 8 8 7 7 7 7 7 7 7 7 7 7 7
15 15 14 13 12 11 10 10 9 9 8 7 7 6 5 5 5 5 6 7 7 8 8 8 8 9 9 10 10 9 9 9 8 8 7 7 7 7 7 7 7 7 7 8
15 14 14 13 12 11 10 10 9 8 8 7 7 6 5 5 6 5 5 6 7 8 8 8 9 9 10 10 10 10 10 9 9 9 8 8 8 7 7 7 7 7 8 8
15 14 14 13 12 11 10 10 9 8 8 7 6 6 5 5 5 5 5 6 7 8 8 8 9 9 10 10 10 11 10 10 10 10 9 9 9 8 8 8 8 8 8 8
15 15 14 13 12 11 10 10 9 8 7 7 6 6 6 5 5 5 5 5 6 6 7 7 8 9 9 10 10 10 11 11 11 11 10 10 9 9 9 9 9 9 9 9
15 14 14 13 12 11 10 10 9 8 7 6 6 6 5 5 4 4 4 4 5 5 5 6 6 7 8 9 10 10 11 11 11 11 11 11 11 10 10 10 10 10 10 10
Wind_Speed
3 8 11 10 11 11 10 6 2 4 2 4 7 7 8 9 11 11 8 9 11 10 10 10 10 10 10 11 11 11 11 12 13 12 11 10 10 9 9 9 10 10 10 9
6 10 12 12 11 9 6 5 4 3 2 5 7 7 9 11 13 11 11 13 14 13 12 12 12 12 12 12 12 12 12 13 12 11 10 10 10 9 8 8 8 8 9 10
4 4 2 6 6 6 4 5 5 4 6 9 8 10 11 12 11 12 15 17 17 15 14 13 13 13 13 13 13 12 12 13 12 11 10 10 10 9 8 7 7 7 8 9
2 6 4 3 1 5 4 5 4 2 7 8 10 11 9 11 12 15 16 16 15 14 13 13 12 13 13 13 13 12 12 12 11 10 11 10 9 9 8 6 6 7 8 9
3 2 2 0 4 4 2 4 4 7 10 11 10 8 7 10 11 14 15 15 13 13 14 12 12 13 14 15 14 14 13 11 10 9 9 9 9 9 7 6 7 7 8 9
4 2 3 3 6 6 2 2 4 8 9 10 10 10 8 10 12 12 12 11 11 11 12 12 13 13 14 15 15 15 14 13 11 9 8 8 8 8 7 6 8 8 9 9
3 2 2 4 5 6 5 7 9 7 8 8 7 8 12 15 12 11 11 11 11 12 12 14 14 13 14 15 16 15 14 13 11 10 10 9 8 7 7 7 7 8 9 9
3 3 5 4 4 3 5 7 7 6 7 8 9 11 11 12 12 12 12 12 13 14 15 15 14 14 16 16 16 15 14 14 13 11 12 12 8 7 7 7 7 8 8 9
6 6 6 2 4 5 5 4 5 6 8 8 10 10 11 10 11 12 13 15 15 17 19 17 14 14 17 17 15 15 14 14 13 13 11 10 9 9 8 7 7 7 7 8
1 3 5 3 0 3 3 3 6 6 8 9 9 10 11 11 12 14 14 16 18 19 19 18 16 15 15 16 15 14 14 13 11 11 10 10 8 8 7 7 8 8 7 7
1 1 1 4 5 4 4 6 7 8 7 9 9 9 9 11 13 15 16 16 16 17 18 19 18 17 16 15 14 14 13 12 10 9 9 9 8 7 7 7 8 8 7 6
6 7 5 5 5 3 5 7 7 8 9 8 7 9 10 12 13 15 17 17 17 17 17 18 17 17 17 15 14 14 12 10 8 7 7 6 5 5 7 9 11 13 10 7
7 7 6 4 1 3 4 6 7 7 7 8 8 8 11 12 13 16 16 17 17 17 17 17 17 17 17 16 15 13 12 10 6 6 5 4 3 3 3 3 4 7 9 9
8 6 3 1 1 2 4 5 6 7 7 7 8 9 10 11 15 17 17 17 17 16 15 15 16 16 16 16 15 13 10 9 7 5 4 3 3 2 1 1 1 0 2 5
8 7 6 5 3 4 4 4 5 6 7 8 8 10 11 12 15 17 16 16 16 15 14 15 16 16 16 16 15 12 8 5 5 4 4 3 2 1 1 1 1 2 2 1
8 7 7 5 3 2 3 4 4 6 6 7 9 11 12 12 13 15 15 15 17 17 15 15 16 16 16 15 14 10 7 8 5 3 4 3 2 1 1 0 1 3 4 4
8 6 5 4 2 1 1 2 3 4 4 6 9 11 11 12 14 16 17 17 16 15 13 14 16 17 16 14 11 9 7 6 6 3 3 3 2 1 0 1 2 3 3 5
9 8 9 8 5 2 1 3 3 3 3 6 9 10 10 12 13 15 16 17 16 15 15 17 18 18 15 12 9 7 6 5 4 3 3 2 3 2 1 2 3 4 3 5
9 10 9 8 7 4 0 2 3 2 2 6 8 10 10 10 10 12 14 15 15 17 19 21 24 18 14 12 11 6 6 6 5 4 3 3 3 2 0 1 2 3 4 5
9 10 9 8 6 3 0 2 2 1 2 5 7 9 11 12 12 12 13 11 10 12 18 21 19 16 15 12 11 6 6 5 5 4 3 2 2 2 3 3 4 3 3 3
11 10 10 8 5 2 1 2 0 0 3 5 7 9 10 11 11 10 12 12 15 17 20 19 15 16 15 14 11 6 5 4 3 3 2 2 2 3 4 4 3 3 3 3
9 9 9 8 6 3 2 1 2 2 3 5 7 8 10 11 11 10 8 8 13 19 17 13 14 19 22 17 9 8 6 4 1 1 1 0 1 2 2 3 3 3 3 3
8 8 9 8 6 4 1 1 3 3 3 5 7 8 9 9 8 10 12 12 13 19 16 12 20 26 23 13 11 11 9 6 3 1 0 1 2 2 2 2 2 3 3 3
9 9 9 8 6 4 3 3 4 3 3 4 6 7 7 7 7 7 8 13 17 18 13 15 21 24 18 12 12 12 11 10 7 4 2 1 1 2 3 3 3 3 3 3
10 9 8 8 6 5 5 6 5 4 3 4 6 6 6 5 7 9 10 12 16 16 12 15 19 20 14 12 12 12 11 11 10 7 5 2 1 2 2 3 4 4 4 4
10 9 7 7 6 6 6 6 4 3 2 3 4 5 5 6 7 8 9 11 14 14 13 11 13 14 12 12 13 13 12 12 12 10 8 6 3 1 2 3 5 5 5 5
9 7 5 5 6 7 7 6 6 4 3 3 3 4 5 6 7 8 9 10 11 11 11 11 11 12 12 12 12 12 12 11 11 11 10 9 7 4 2 1 3 4 5 5
Wind_Direction
9 93 89 75 60 60 67 74 85 309 78 9 330 317 309 306 308 313 311 308 302 294 284 276 271 267 260 256 254 251 247 243 240 239 237 235 236 240 245 247 249 248 252 253
59 107 93 70 51 44 41 32 11 46 67 312 306 313 314 314 317 310 303 305 301 294 286 278 272 268 263 258 255 249 246 243 237 230 226 223 222 225 230 240 248 250 250 252
338 272 75 32 31 52 34 35 67 40 306 304 316 318 310 312 310 300 303 306 305 299 289 285 283 280 277 272 266 258 250 245 236 227 222 219 214 209 215 230 241 248 250 251
4 23 36 225 84 73 98 98 59 337 295 300 302 299 293 296 300 304 307 308 306 303 300 298 295 298 296 294 288 278 268 258 248 236 230 220 210 209 217 223 234 243 249 250
64 352 189 266 7 353 278 192 51 356 334 325 311 308 289 282 292 297 302 306 310 312 313 315 317 319 318 313 307 300 293 284 274 259 242 225 215 215 217 221 234 240 245 247
46 344 250 276 317 309 349 290 335 345 325 318 334 333 305 303 306 307 312 317 322 325 324 323 322 323 319 314 310 305 302 300 296 286 264 241 227 221 219 221 232 241 248 245
39 312 269 307 325 36 55 284 299 308 312 319 315 287 296 312 319 322 324 323 323 320 319 318 318 316 311 307 302 299 295 289 288 289 279 263 245 233 229 230 234 240 247 248
77 355 276 316 44 70 249 260 287 299 305 303 297 295 304 315 322 326 323 320 322 323 323 321 318 314 310 306 303 301 297 292 288 283 279 278 260 245 232 227 232 238 243 249
177 210 223 176 151 205 229 278 296 300 303 307 312 312 319 324 326 323 322 326 329 328 326 323 320 314 311 308 306 303 299 294 290 286 280 274 265 255 243 231 230 234 234 237
136 172 181 156 130 333 349 330 316 314 315 325 323 323 328 327 325 327 331 332 333 331 328 327 324 318 311 308 306 301 296 292 287 283 279 273 265 255 242 228 225 226 225 227
220 233 205 328 331 343 12 358 343 335 329 331 333 331 330 326 327 332 334 332 332 330 327 325 323 320 315 312 309 305 298 291 286 279 277 277 267 255 241 229 218 215 217 210
216 223 198 257 287 31 27 354 342 342 338 335 336 331 330 327 331 333 333 333 331 329 327 325 324 322 320 318 316 312 308 300 292 284 280 276 274 277 255 241 232 225 222 212
181 185 184 225 57 43 21 357 352 350 342 334 333 332 330 329 332 334 333 333 331 327 325 324 325 323 323 325 324 321 319 316 307 299 291 287 275 272 285 290 250 229 222 213
169 155 145 146 165 26 24 6 359 349 338 331 330 330 331 331 333 335 334 331 326 324 325 326 327 326 326 327 327 327 328 332 334 320 313 309 302 285 258 228 183 250 235 232
170 155 164 159 108 42 21 7 359 339 331 333 332 333 334 335 334 331 330 329 327 327 329 332 332 328 327 328 330 330 332 329 330 331 333 328 325 321 301 243 183 158 133 102
161 143 134 119 91 43 13 2 347 330 332 334 332 330 329 328 327 329 332 333 331 329 330 333 332 328 325 325 328 331 332 345 353 344 342 346 347 343 332 250 162 159 162 155
153 169 163 152 144 108 7 338 329 326 332 331 322 321 325 330 334 338 336 333 327 322 325 333 332 328 323 321 323 329 330 330 341 342 332 328 326 322 311 154 140 140 159 169
166 172 167 160 160 149 351 338 332 329 317 311 316 322 329 332 332 331 331 329 330 334 339 338 333 329 321 318 322 327 332 329 317 305 299 295 296 293 260 151 146 142 145 162
153 151 149 144 143 137 137 302 296 282 300 315 321 322 320 318 319 325 331 333 338 341 338 333 328 328 322 318 323 318 330 334 335 325 311 306 303 303 316 123 126 134 143 146
150 147 145 141 137 132 284 289 287 256 300 317 324 326 330 333 333 335 335 332 333 333 329 328 330 333 332 322 319 306 308 318 328 335 347 3 13 30 55 81 102 111 121 131
155 153 149 147 146 140 284 298 246 214 309 330 335 328 326 326 329 333 338 339 337 336 335 330 338 341 340 333 321 308 296 290 298 322 346 19 43 56 69 77 83 91 98 101
162 159 156 154 159 187 265 263 141 124 351 349 344 336 336 336 338 337 331 328 328 332 336 336 343 340 342 342 348 343 334 323 290 258 294 54 92 88 85 91 92 93 93 94
168 166 162 166 173 189 221 125 123 108 35 10 351 344 339 336 338 341 340 338 337 334 337 339 340 341 345 355 360 1 2 2 1 5 196 178 157 151 149 138 125 115 113 114
173 173 173 176 165 155 152 147 136 114 75 28 354 346 342 343 341 339 331 331 338 337 340 338 340 345 351 0 2 5 7 8 5 8 20 109 148 152 151 149 147 147 153 158
176 174 173 171 171 174 166 149 129 99 70 18 355 352 352 353 343 339 339 341 343 344 346 344 345 348 358 1 3 5 6 5 4 2 11 22 99 160 163 163 162 163 172 185
179 181 185 185 174 162 153 140 133 129 97 31 2 353 353 350 346 347 347 346 346 346 351 353 354 357 3 3 4 6 5 2 3 5 3 7 14 74 154 164 171 178 187 195
183 177 166 156 152 149 142 138 138 139 124 89 30 356 356 353 353 354 353 353 353 353 354 356 358 2 5 7 7 9 8 6 4 1 359 1 3 7 12 153 165 179 189 191
Height
1514 1511 1513 1516 1515 1515 1520 1523 1530 1528 1528 1528 1524 1521 1517 1512 1507 1501 1496 1492 1487 1482 1477 1473 1468 1464 1460 1456 1453 1449 1446 1443 1441 1439 1438 1437 1436 1435 1434 1434 1433 1433 1432 1432
1521 1516 1515 1520 1520 1520 1520 1522 1524 1526 1529 1525 1521 1517 1512 1507 1501 1495 1490 1485 1480 1474 1469 1464 1459 1454 1449 1445 1442 1438 1435 1432 1430 1429 1428 1427 1426 1426 1426 1425 1425 1424 1424 1424
1527 1517 1517 1532 1527 1525 1526 1526 1528 1533 1531 1523 1519 1513 1508 1503 1498 1492 1486 1480 1474 1468 1462 1456 1451 1445 1440 1435 1431 1427 1424 1421 1419 1418 1417 1416 1416 1416 1417 1417 1416 1416 1416 1416
1530 1529 1537 1533 1521 1521 1525 1528 1527 1526 1524 1519 1515 1510 1506 1501 1495 1488 1481 1475 1468 1462 1455 1449 1443 1437 1431 1425 1420 1416 1412 1409 1408 1406 1405 1405 1405 1406 1406 1407 1407 1407 1407 1407
1537 1537 1533 1527 1523 1521 1523 1526 1525 1522 1518 1514 1509 1504 1501 1497 1492 1485 1478 1470 1463 1457 1450 1442 1436 1429 1422 1415 1410 1405 1401 1398 1396 1395 1394 1394 1394 1395 1396 1397 1397 1398 1398 1398
1535 1537 1538 1533 1523 1518 1519 1525 1521 1518 1515 1510 1504 1502 1495 1490 1485 1478 1472 1465 1457 1450 1443 1435 1428 1420 1413 1406 1401 1395 1391 1388 1385 1384 1383 1382 1383 1384 1385 1386 1387 1388 1388 1389
1537 1538 1535 1527 1522 1521 1533 1533 1520 1517 1513 1509 1505 1501 1492 1485 1479 1473 1466 1459 1451 1443 1435 1427 1419 1412 1404 1397 1391 1386 1381 1377 1374 1373 1372 1372 1372 1373 1374 1376 1377 1378 1379 1380
1539 1542 1540 1524 1523 1527 1529 1521 1518 1514 1510 1506 1501 1495 1488 1482 1475 1468 1460 1452 1443 1435 1427 1420 1412 1404 1396 1389 1383 1377 1372 1368 1365 1363 1362 1361 1361 1362 1364 1365 1367 1369 1370 1372
1531 1533 1525 1523 1523 1523 1521 1518 1515 1511 1507 1502 1495 1489 1483 1477 1470 1463 1454 1446 1438 1430 1421 1413 1406 1399 1390 1383 1377 1371 1365 1361 1357 1355 1353 1352 1351 1351 1353 1355 1358 1360 1362 1364
1524 1523 1522 1522 1521 1519 1517 1515 1511 1508 1503 1498 1492 1486 1480 1473 1465 1457 1449 1441 1433 1424 1415 1407 1400 1393 1386 1378 1371 1365 1359 1355 1351 1348 1346 1344 1344 1343 1344 1346 1349 1352 1354 1357
1522 1520 1520 1519 1518 1516 1513 1511 1508 1504 1500 1495 1489 1483 1477 1469 1461 1453 1445 1437 1429 1421 1412 1404 1397 1389 1382 1375 1367 1360 1354 1349 1346 1343 1341 1339 1338 1338 1339 1340 1343 1346 1349 1351
1522 1517 1517 1516 1515 1513 1510 1508 1504 1501 1496 1491 1486 1480 1473 1465 1458 1450 1442 1434 1425 1418 1410 1402 1394 1387 1379 1372 1364 1357 1350 1345 1342 1339 1337 1336 1335 1335 1336 1337 1339 1342 1344 1347
1512 1513 1513 1512 1511 1510 1508 1505 1502 1498 1493 1488 1482 1477 1470 1462 1455 1447 1439 1431 1423 1415 1408 1400 1393 1385 1378 1370 1363 1356 1349 1344 1340 1337 1335 1334 1334 1334 1334 1336 1337 1339 1342 1345
1509 1509 1509 1509 1508 1506 1504 1501 1498 1494 1490 1485 1479 1473 1466 1459 1452 1444 1436 1429 1421 1413 1406 1399 1392 1385 1378 1371 1363 1356 1350 1344 1340 1337 1335 1334 1333 1333 1334 1335 1337 1338 1341 1344
1505 1505 1505 1505 1504 1502 1500 1498 1494 1491 1486 1481 1476 1469 1463 1456 1449 1442 1434 1427 1419 1411 1404 1398 1391 1385 1378 1372 1365 1358 1352 1346 1342 1339 1337 1335 1334 1334 1335 1336 1337 1339 1340 1343
1501 1501 1501 1501 1500 1498 1496 1494 1491 1487 1483 1478 1472 1466 1460 1454 1447 1440 1432 1425 1417 1409 1403 1396 1390 1385 1379 1373 1366 1360 1354 1349 1345 1342 1339 1338 1337 1336 1336 1337 1338 1339 1341 1343
1497 1498 1497 1497 1496 1495 1493 1491 1488 1485 1480 1475 1470 1464 1457 1451 1444 1437 1430 1423 1416 1409 1402 1395 1389 1384 1379 1373 1368 1363 1357 1353 1348 1345 1342 1340 1339 1338 1338 1338 1339 1340 1341 1343
1493 1494 1493 1493 1492 1491 1490 1488 1485 1482 1478 1473 1468 1461 1455 1449 1442 1436 1429 1422 1415 1408 1401 1394 1388 1382 1377 1373 1368 1364 1360 1356 1352 1348 1345 1343 1341 1340 1340 1340 1340 1341 1342 1343
1490 1491 1490 1490 1489 1488 1486 1484 1482 1479 1475 1471 1465 1459 1453 1447 1441 1435 1428 1421 1414 1406 1400 1393 1387 1380 1375 1371 1367 1363 1359 1356 1354 1351 1349 1346 1345 1343 1343 1342 1342 1342 1343 1343
1487 1487 1487 1486 1485 1484 1483 1481 1479 1476 1472 1468 1462 1456 1450 1444 1439 1433 1427 1421 1415 1409 1401 1394 1387 1380 1374 1369 1365 1361 1358 1356 1354 1353 1351 1350 1348 1347 1346 1345 1345 1345 1344 1345
1482 1482 1482 1482 1482 1481 1479 1478 1476 1473 1470 1465 1460 1454 1449 1443 1438 1432 1425 1419 1414 1408 1402 1395 1388 1382 1376 1370 1365 1361 1357 1354 1353 1352 1352 1351 1351 1350 1350 1349 1349 1348 1348 1349
1478 1478 1478 1478 1477 1477 1476 1475 1473 1470 1467 1463 1458 1452 1447 1441 1436 1431 1426 1421 1414 1408 1402 1396 1390 1384 1379 1372 1367 1362 1358 1355 1353 1351 1351 1351 1352 1352 1352 1352 1353 1353 1354 1355
1474 1474 1474 1473 1473 1473 1473 1472 1470 1467 1464 1460 1456 1450 1446 1441 1436 1430 1424 1420 1414 1409 1403 1397 1392 1386 1381 1375 1370 1365 1361 1358 1355 1353 1352 1352 1352 1352 1353 1354 1356 1357 1359 1361
1470 1470 1470 1470 1470 1469 1469 1468 1467 1465 1462 1459 1454 1450 1445 1439 1434 1430 1426 1420 1415 1409 1404 1398 1393 1388 1382 1377 1373 1369 1365 1362 1359 1357 1355 1354 1354 1354 1354 1355 1357 1360 1362 1365
1465 1466 1466 1466 1465 1465 1465 1465 1464 1462 1460 1457 1453 1448 1444 1439 1434 1429 1425 1420 1415 1409 1404 1399 1394 1389 1384 1380 1376 1372 1369 1366 1364 1362 1360 1359 1358 1357 1358 1358 1360 1362 1364 1367
1459 1460 1460 1460 1461 1461 1461 1461 1460 1458 1456 1454 1451 1447 1443 1438 1434 1429 1424 1420 1415 1410 1404 1399 1395 1390 1386 1383 1379 1375 1372 1370 1368 1366 1364 1363 1363 1363 1363 1363 1364 1365 1367 1370
1453 1454 1455 1455 1456 1457 1457 1457 1457 1455 1453 1452 1449 1446 1442 1438 1433 1429 1424 1420 1415 1411 1406 1401 1397 1392 1389 1385 1382 1379 1376 1374 1372 1370 1369 1368 1367 1367 1367 1368 1368 1370 1371 1373